GFSGL_925_rhum_033.txt.gz
RH
82 81 76 76 75 72 67 64 61 51 46 42 43 45 45 33 31 29 28 29 28 31 35 37 39 42 44 45 45 46 46 46 63 58 58 61 64 62 63 62 60 62 68
75 71 70 70 67 64 62 58 54 46 44 47 45 38 31 31 29 29 28 28 28 33 36 39 42 44 46 48 49 50 49 50 60 68 67 70 70 68 70 72 72 78 80
67 64 59 56 58 54 51 46 46 45 46 52 36 48 38 29 27 27 27 30 32 35 40 44 45 46 48 49 51 52 51 54 60 66 75 74 75 79 80 87 89 83 70
67 57 53 49 47 44 45 48 46 43 40 45 43 31 28 27 26 27 29 35 42 48 48 47 47 47 47 49 51 54 57 60 64 70 78 82 85 77 85 93 74 72 70
67 59 50 48 47 45 45 42 41 37 39 39 44 46 30 29 30 35 46 47 44 43 43 44 47 48 53 56 56 56 59 63 66 72 88 87 80 84 79 75 76 72 73
57 50 48 46 43 43 44 45 48 43 33 34 35 36 34 40 58 56 46 41 37 36 41 46 49 49 49 54 57 56 60 62 67 73 86 83 81 80 76 74 75 79 82
56 48 50 55 60 61 45 43 54 72 80 77 60 51 79 64 48 36 47 41 34 43 48 49 47 47 51 51 52 59 59 63 67 69 82 86 87 77 71 78 91 97 95
59 63 71 72 77 79 84 84 84 73 58 67 74 42 36 42 41 44 56 41 41 45 50 54 56 58 58 61 59 60 67 64 67 79 82 77 74 76 94 97 90 84 84
83 85 80 75 83 83 83 86 91 91 75 40 35 37 37 44 42 46 51 52 53 52 57 59 64 66 63 64 64 64 67 73 76 75 72 76 79 78 75 79 86 88 86
91 98 99 99 99 99 96 94 59 36 35 34 36 37 37 36 43 50 57 59 59 61 66 67 65 67 66 65 67 72 77 73 68 70 80 78 68 66 78 78 82 94 93
100 97 96 96 79 49 38 34 35 34 35 36 36 36 36 37 39 46 50 54 57 64 69 67 66 69 70 70 68 70 70 65 72 78 67 70 75 80 84 87 92 98 97
97 94 62 41 36 34 33 33 35 36 36 36 34 34 37 38 42 45 50 56 62 70 71 70 69 77 73 72 69 67 65 69 66 71 78 83 90 94 93 95 97 99 98
43 39 37 36 36 34 34 37 37 36 35 37 38 41 42 42 42 46 63 65 74 74 74 75 78 80 78 70 67 69 71 68 75 85 92 93 94 97 97 100 96 95 95
40 40 41 41 42 41 40 38 38 36 38 42 44 45 43 42 46 52 69 74 76 76 74 84 82 73 69 72 74 72 74 80 85 90 95 98 100 100 100 99 100 100 100
39 41 42 40 40 41 40 39 39 43 33 33 42 46 52 59 63 70 74 75 74 76 77 71 66 70 79 82 81 81 82 86 94 97 99 98 98 99 98 98 100 100 98
40 40 40 41 42 41 39 44 47 44 44 46 48 56 49 54 60 66 71 72 73 79 71 73 79 83 86 86 87 88 91 95 99 100 100 100 100 100 100 98 97 98 96
40 43 44 43 41 40 37 35 34 34 37 40 43 46 49 54 62 71 75 74 77 74 75 77 82 86 89 91 93 96 100 100 100 100 100 100 100 99 94 96 96 97 94
43 43 44 43 39 36 34 35 37 41 37 36 41 53 56 62 70 79 76 72 73 76 78 82 87 90 94 96 96 99 100 100 100 100 100 99 99 99 98 95 95 96 95
44 42 37 33 38 34 33 38 42 38 40 47 51 54 59 70 77 69 70 70 75 80 85 90 92 94 94 94 96 100 100 100 100 100 99 99 99 98 96 96 97 93 92
49 43 31 31 32 32 38 44 42 44 50 56 59 62 67 72 61 62 68 72 79 84 88 91 91 92 93 96 99 100 100 100 100 99 98 98 99 100 98 97 97 96 95
30 39 36 32 33 36 45 46 47 51 57 60 65 66 72 67 64 70 74 79 84 88 89 91 92 94 95 98 100 100 100 100 99 97 97 98 100 100 100 100 100 99 99
26 28 30 32 34 45 54 49 53 59 63 67 68 70 72 68 74 80 82 85 87 90 92 96 96 97 97 98 98 98 100 100 97 97 97 100 100 100 100 100 99 98 97
28 30 32 36 40 53 50 54 60 66 70 73 77 78 77 79 84 85 86 85 88 91 93 96 97 95 96 98 98 98 97 96 98 99 99 99 97 98 99 98 99 97 95
28 31 36 41 49 54 56 64 69 79 85 84 85 88 87 88 88 86 81 86 90 91 94 96 97 98 98 98 99 100 100 99 98 97 98 98 98 97 97 99 100 100 97
29 33 39 46 50 56 64 73 80 88 92 91 90 94 90 88 89 83 83 88 90 92 92 96 97 98 98 100 99 99 100 99 99 99 99 97 97 96 98 100 99 100 98
32 39 45 50 56 67 77 86 88 90 90 91 95 92 89 91 88 82 82 83 86 87 89 94 96 98 99 99 99 97 99 99 100 99 98 97 98 98 99 100 100 100 100

GFSGL_925_rhum_036.txt.gz
RH
54 70 83 88 88 85 83 81 77 71 64 58 50 43 46 42 44 44 44 50 30 30 32 34 36 38 41 43 45 45 46 49 67 56 54 54 60 63 64 66 61 67 71
73 86 89 90 89 87 83 79 75 68 60 53 47 46 45 45 49 76 71 31 30 31 34 37 39 42 44 45 47 48 49 50 55 67 63 63 67 69 72 71 71 71 74
88 87 85 87 87 84 80 76 65 58 51 49 47 48 53 73 69 44 47 40 32 35 38 42 45 48 47 48 49 50 52 51 54 65 74 70 72 72 75 79 84 83 76
75 77 79 77 70 66 58 57 54 53 51 52 56 68 65 64 66 44 33 34 39 49 56 62 62 52 48 48 49 52 56 59 62 66 73 77 75 75 80 85 83 76 77
67 60 57 52 54 54 56 55 52 54 56 63 65 65 57 43 39 39 43 66 78 80 67 48 44 47 50 60 59 57 60 62 62 65 78 81 87 85 79 80 84 80 78
75 70 62 63 63 59 54 56 55 54 59 62 65 68 68 72 70 76 89 76 56 38 34 42 46 47 48 57 58 59 58 61 65 73 78 90 88 83 84 86 84 87 86
63 71 89 77 69 73 69 62 58 64 72 81 80 78 69 88 96 88 72 47 34 39 44 47 48 53 55 55 55 64 62 65 68 70 76 80 88 84 83 86 91 96 94
96 88 85 86 88 78 71 76 80 81 81 85 93 97 98 83 71 66 51 37 39 41 47 56 60 63 63 68 67 65 66 66 70 75 80 80 79 83 96 98 95 87 90
93 87 84 70 76 84 96 99 99 95 98 97 91 59 52 58 51 44 41 49 51 50 55 64 72 72 69 69 67 68 75 80 74 74 72 74 77 78 76 77 88 93 88
99 100 100 99 100 99 99 96 100 98 73 46 42 39 37 37 53 56 58 56 55 57 65 68 67 72 70 69 71 74 76 75 67 71 78 76 64 63 79 81 84 96 95
100 100 99 98 99 99 96 81 51 45 39 38 38 39 40 38 42 50 51 52 58 68 72 69 68 73 76 76 72 71 72 67 74 73 66 68 73 79 85 87 93 100 98
99 99 99 89 62 44 38 37 36 36 37 37 36 38 40 42 51 57 70 66 68 74 74 73 72 84 79 75 72 73 71 74 70 71 83 89 93 93 89 94 93 97 99
66 53 48 41 36 34 33 36 37 36 36 38 40 43 45 42 38 39 65 74 78 76 76 80 86 85 81 73 75 76 78 71 79 89 96 95 97 96 94 100 96 94 95
41 39 37 36 38 39 38 38 36 37 39 40 41 41 41 43 49 68 73 74 72 73 80 91 80 74 70 76 74 72 75 81 88 92 97 100 100 100 100 100 100 100 100
40 43 45 43 41 41 41 40 37 38 34 35 38 45 49 52 60 66 70 72 72 82 93 72 65 71 78 81 82 81 82 87 96 98 100 100 100 100 100 99 100 100 98
43 42 42 42 42 43 44 51 56 56 60 61 62 58 50 54 61 69 74 75 84 77 78 76 81 84 89 91 92 91 90 96 100 100 100 100 100 100 100 99 99 100 98
40 43 44 42 39 35 32 33 34 40 39 44 53 57 59 64 69 76 77 78 76 78 77 81 85 89 92 93 93 95 99 99 100 100 100 100 100 99 96 100 99 98 95
42 42 41 39 34 33 34 36 39 37 36 41 44 63 65 71 78 76 74 71 70 75 79 85 88 89 91 93 94 99 100 100 100 97 98 98 99 100 100 98 97 97 96
41 42 35 34 34 33 35 39 38 38 46 52 54 54 66 79 74 70 74 71 77 81 84 87 88 90 93 96 98 100 100 100 100 98 98 98 97 98 97 98 99 97 96
37 33 32 32 31 32 37 39 42 48 54 59 62 62 72 74 61 68 73 78 83 86 90 92 93 95 97 99 99 98 99 100 99 100 100 98 97 100 99 99 98 98 96
38 38 33 29 28 35 47 46 49 55 61 64 66 68 76 74 69 78 80 81 86 90 93 96 97 96 97 99 99 98 100 100 98 100 100 98 99 100 100 100 100 99 99
28 28 28 28 34 48 52 50 56 60 65 69 72 73 80 74 80 82 81 81 85 90 93 98 98 97 99 98 97 96 97 98 97 98 98 98 100 100 100 100 98 99 98
27 26 29 34 43 54 50 57 60 70 76 79 79 80 84 85 84 82 81 80 87 88 90 95 98 95 96 97 98 98 97 97 97 100 100 99 99 98 99 99 100 98 97
25 27 31 39 54 52 56 64 71 79 89 86 85 85 90 87 85 83 80 82 84 83 84 86 94 98 97 96 97 98 99 98 98 96 98 98 99 98 100 100 100 100 100
25 29 36 43 48 54 63 71 79 85 88 88 89 93 88 84 83 80 79 80 78 78 78 83 92 97 98 98 96 99 100 94 98 100 99 99 100 99 100 100 100 100 100
28 35 42 48 55 65 74 88 90 89 88 91 92 86 83 83 83 82 78 74 72 74 75 86 90 94 98 97 98 99 100 98 98 100 99 99 100 100 100 100 100 100 100

GFSGL_925_rhum_039.txt.gz
RH
49 48 52 58 77 77 84 88 88 87 85 83 78 70 61 54 46 41 38 42 46 58 63 58 39 35 36 39 42 44 46 50 65 55 52 48 53 58 62 62 60 59 59
67 66 76 84 92 94 92 91 89 84 82 77 71 63 57 50 41 42 48 60 73 75 65 57 40 37 41 44 46 46 48 50 56 65 57 58 62 63 65 68 66 62 70
91 97 96 95 94 94 91 87 83 79 74 69 62 57 52 47 48 60 79 74 64 60 52 43 45 46 49 51 53 51 50 51 54 63 71 70 70 66 70 74 73 76 76
82 91 96 97 95 93 89 82 76 69 63 60 60 57 57 63 73 70 70 68 58 58 58 59 76 87 84 60 51 49 53 57 60 64 71 73 72 70 78 84 82 78 81
73 73 72 72 74 73 70 66 65 64 65 62 61 72 74 73 73 65 61 60 62 83 99 97 65 54 51 63 66 61 59 61 63 64 76 78 80 86 86 80 88 86 88
78 77 76 66 63 62 64 65 66 66 68 70 74 75 73 72 82 78 82 98 100 99 69 50 46 45 47 51 64 69 66 64 65 74 73 82 91 81 83 88 88 96 89
87 93 87 84 87 85 78 77 78 79 76 74 73 72 82 98 99 99 99 83 45 46 43 43 45 52 55 54 54 66 68 70 70 71 79 80 82 83 82 93 96 98 96
99 92 88 89 91 89 89 91 88 92 91 92 93 98 99 99 99 98 72 43 40 42 44 49 57 66 64 72 72 70 68 70 76 81 82 79 76 76 88 98 97 92 90
100 100 100 98 100 100 100 100 100 94 97 100 100 100 99 96 94 79 45 47 50 53 56 63 71 73 70 72 70 70 79 80 74 73 74 78 81 79 76 76 86 94 89
100 100 100 100 100 100 99 99 100 100 99 98 80 50 64 78 68 62 61 55 54 58 64 70 69 74 71 74 74 82 76 73 68 77 80 75 66 61 74 81 86 97 96
100 100 100 100 100 100 99 100 86 56 46 44 42 46 39 40 52 54 57 64 68 73 75 69 66 78 81 82 76 76 74 72 76 77 71 65 70 74 82 86 94 100 99
100 100 100 99 100 90 54 42 39 38 38 39 39 42 44 50 62 65 68 68 75 78 75 73 81 90 83 80 77 74 75 78 76 71 82 88 92 90 87 90 89 92 98
91 85 58 46 41 38 36 37 38 38 38 41 43 46 45 39 36 42 67 77 78 76 77 86 97 85 80 72 73 78 82 72 78 89 97 97 95 92 89 87 88 93 96
43 41 39 38 38 38 37 37 37 38 40 42 40 40 42 45 52 67 71 72 73 79 92 86 79 74 70 72 62 64 73 81 92 94 95 97 95 94 98 96 100 100 100
42 44 42 40 40 41 41 37 35 40 36 37 42 48 51 53 61 67 73 75 75 80 84 79 63 65 69 70 74 79 82 88 94 95 100 100 100 100 100 95 97 100 100
43 42 42 42 44 47 52 62 63 67 64 62 61 56 54 62 68 74 78 79 83 78 81 71 76 78 83 86 89 89 89 93 94 100 100 100 100 100 100 100 100 100 99
40 42 42 40 38 36 34 34 35 43 42 57 65 66 66 70 74 81 78 81 76 79 75 76 82 84 86 90 93 96 96 94 96 96 97 98 100 98 99 100 99 99 96
41 42 41 38 32 30 31 33 35 33 35 40 43 68 72 78 83 75 76 72 62 69 78 85 86 88 93 96 97 99 98 96 97 98 99 100 98 98 100 98 97 97 96
42 43 36 30 29 30 34 37 36 39 46 51 53 52 68 82 76 70 78 71 79 82 86 90 93 95 96 98 99 99 100 98 100 99 96 100 99 99 98 99 99 96 94
39 31 31 31 30 33 37 38 42 48 54 58 61 61 73 80 69 68 73 76 82 87 91 95 95 95 98 99 98 98 97 96 95 96 100 100 98 100 100 99 99 98 96
34 34 29 29 30 37 44 44 48 54 59 63 65 66 80 82 71 76 77 77 83 88 92 96 95 97 98 98 97 97 98 96 95 98 100 100 98 100 100 100 100 100 100
32 35 30 28 35 46 48 47 53 59 65 70 73 72 86 78 76 77 79 78 80 86 90 93 92 95 98 98 97 96 96 96 96 99 99 98 100 100 100 100 99 98 98
27 29 30 32 40 54 47 53 60 67 75 80 80 79 82 84 82 79 80 76 77 81 82 84 84 89 96 100 99 98 97 95 96 100 98 100 100 99 99 99 99 98 97
28 27 29 34 44 50 51 62 67 76 85 81 82 83 87 85 80 78 78 74 73 73 75 77 80 90 96 99 98 97 94 96 98 97 98 98 99 100 99 98 98 99 99
27 28 32 38 43 50 59 67 74 82 85 83 84 87 84 77 76 76 73 71 68 68 70 72 83 90 96 98 96 96 98 100 100 99 99 99 100 100 98 98 99 99 98
27 32 37 42 48 58 67 77 83 78 76 79 85 82 78 76 77 74 70 69 66 64 68 76 87 92 96 99 97 99 100 100 100 99 100 99 99 100 100 100 100 100 97

GFSGL_925_rhum_042.txt.gz
RH
60 58 64 62 64 68 76 81 92 99 97 95 94 95 93 88 81 72 58 46 41 42 49 48 59 60 58 57 50 54 50 48 60 53 49 44 45 49 54 57 60 64 60
69 74 82 91 93 96 99 100 98 99 96 93 92 90 85 77 67 56 46 42 46 62 76 80 73 76 71 71 69 68 65 70 65 65 56 54 56 58 60 64 66 68 64
69 74 92 100 100 100 100 98 94 92 89 86 82 76 68 63 56 49 45 59 74 83 83 72 69 69 76 92 98 99 98 60 54 62 66 65 66 63 67 70 72 71 72
73 82 92 99 99 97 91 87 83 81 78 73 73 69 64 56 54 66 76 76 72 74 75 74 83 96 99 100 97 87 58 55 58 62 68 69 69 70 74 82 85 79 81
79 76 81 85 86 85 80 79 76 79 79 77 71 68 67 69 80 81 83 82 78 82 88 97 100 97 70 90 95 83 69 65 65 67 74 76 80 81 86 81 86 88 91
78 80 78 77 80 79 80 81 79 80 80 79 81 80 82 85 88 79 69 79 97 100 99 95 48 54 57 60 77 71 68 68 70 75 75 83 87 84 83 88 90 95 88
91 89 86 82 84 83 79 76 80 84 88 89 86 82 90 99 100 99 100 98 97 88 49 48 50 54 50 49 52 70 74 75 74 76 83 84 87 83 80 90 94 100 98
98 100 98 92 92 90 89 94 96 95 94 95 98 100 99 100 100 99 91 62 45 44 48 48 54 61 58 71 72 72 70 72 77 80 82 80 78 79 83 89 92 88 87
99 100 100 100 100 99 99 100 100 99 100 100 100 100 99 98 98 57 44 49 51 54 57 62 68 68 64 73 71 72 87 86 75 73 78 85 85 80 77 81 86 96 90
100 100 100 100 100 99 100 100 100 100 100 99 98 96 96 97 96 90 58 56 56 60 66 72 65 73 76 77 80 93 80 76 69 80 80 74 63 64 72 80 88 100 98
100 100 100 100 100 100 100 100 100 99 93 83 86 74 68 62 59 66 69 66 71 75 72 67 69 84 83 87 79 78 75 72 80 81 69 66 69 71 74 79 88 100 100
100 99 100 100 100 100 94 68 49 44 43 45 44 48 55 57 64 67 70 73 79 76 76 78 85 92 88 83 78 76 77 82 74 71 80 82 84 83 80 82 81 85 92
99 89 78 63 51 44 41 41 40 39 41 45 45 45 40 34 32 54 74 77 78 79 85 96 92 85 80 67 76 80 84 71 80 91 95 93 91 88 83 81 80 84 88
45 43 40 40 40 39 38 39 39 40 41 41 38 40 43 46 60 69 73 76 77 81 85 85 81 66 61 70 61 67 74 81 94 95 93 91 92 88 89 90 95 94 100
41 44 43 41 41 40 39 37 36 40 36 37 44 50 52 56 67 74 77 78 80 82 88 69 59 62 63 64 70 76 82 86 91 93 95 98 95 96 92 92 96 100 100
43 44 45 44 47 50 60 69 70 64 64 66 65 62 61 68 74 79 82 81 82 81 70 68 69 73 77 82 87 89 87 90 93 96 96 97 98 99 100 99 100 100 100
41 43 44 42 41 42 44 42 42 53 59 68 72 70 74 76 82 82 79 84 76 73 69 75 80 82 88 93 94 95 96 93 94 94 96 96 98 94 100 98 98 100 99
42 42 40 36 31 32 34 34 30 29 34 40 45 70 78 82 82 78 81 63 57 65 76 84 89 94 94 96 97 97 96 94 94 96 97 99 97 97 99 99 100 99 98
41 41 35 31 31 30 31 31 33 39 46 50 50 51 63 83 80 72 71 65 75 77 83 88 93 95 97 98 98 97 98 96 100 100 96 97 99 98 98 100 100 100 98
41 34 32 31 29 30 32 34 39 44 50 54 58 61 67 82 81 67 67 71 75 80 86 91 93 95 98 98 97 97 96 95 95 97 98 100 99 98 99 100 100 100 98
39 36 30 27 27 31 37 39 44 51 56 60 64 67 80 85 82 74 74 72 74 79 86 90 89 89 92 97 97 97 98 96 95 94 97 98 100 98 98 100 100 100 100
33 33 28 26 27 35 43 45 50 57 63 69 71 70 86 85 77 77 73 73 74 77 82 84 82 82 85 95 98 98 98 96 93 92 98 98 100 100 100 100 100 100 99
29 27 27 27 32 50 50 47 55 60 70 75 77 77 76 77 78 75 72 72 70 69 71 74 76 76 82 94 99 99 98 96 96 97 98 98 100 99 99 98 98 98 98
25 26 26 29 36 46 46 51 60 67 77 77 77 77 79 79 76 73 73 72 70 65 64 67 71 73 88 95 98 94 94 97 96 96 98 97 98 99 99 99 99 99 100
26 26 28 32 36 42 48 56 63 72 78 78 75 78 78 75 71 70 72 70 68 65 60 62 66 81 91 97 97 94 97 97 99 100 99 99 100 100 100 100 99 99 100
26 26 29 34 38 46 54 60 66 71 70 72 76 78 76 74 72 72 72 70 69 64 59 61 73 88 94 98 98 98 97 97 99 99 99 100 100 99 100 99 99 99 99